Weather History for Fort Polk, LA

Change the Weather History Date:

Tuesday, October 29, 2013

  Actual Average Record
Temperature  
Mean Temperature 71 °F -  
Max Temperature 80 °F 72 °F 86 °F (2004)
Min Temperature 62 °F 53 °F 37 °F (2008)
Cooling Degree Days 6    
Growing Degree Days 21 (Base 50)    
Moisture  
Dew Point 65 °F    
Average Humidity 85    
Maximum Humidity 100    
Minimum Humidity 58    
Precipitation  
Precipitation 0.01 in - - ()
Sea Level Pressure  
Sea Level Pressure 30.15 in    
Wind  
Wind Speed 7 mph (SE)    
Max Wind Speed 12 mph    
Max Gust Speed 17 mph    
Visibility 9 miles    
Events      
Averages and records for this station are not official NWS values.
T = Trace of Precipitation, MM = Missing Value Source: NWS Daily Summary

Daily Weather History Graph

Daily Weather History Graph

Search for Another Location

Airport:

Trip Planner

Search our weather history database for the weather conditions in past years. The results will help you decide how hot, cold, wet, or windy it might be!

Date:

Astronomy

Oct. 29, 2013 Rise Set
Actual Time 7:25 AM CDT 6:26 PM CDT
Civil Twilight 7:01 AM CDT 6:51 PM CDT
Nautical Twilight 6:32 AM CDT 7:19 PM CDT
Astronomical Twilight 6:04 AM CDT 7:48 PM CDT
Moon 2:35 AM CDT (10/29) 3:23 PM CDT (10/29)
Length of Visible Light 11h 50m
Length of Day
11h 00m
Waning Crescent, 25% of the Moon is Illuminated
Oct 29
Waning Crescent
Nov 3
New
Nov 9
First Quarter
Nov 17
Full
Nov 25
Last Quarter

Hourly Weather History & Observations

Time (CDT) Temp. Heat Index Dew Point Humidity Pressure Visibility Wind Dir Wind Speed Gust Speed Precip Events Conditions
12:55 AM 66.9 °F - 66.0 °F 97% 30.15 in 10.0 mi SE 5.8 mph - N/A   Mostly Cloudy
1:02 AM 66.2 °F - 66.2 °F 100% 30.15 in 10.0 mi SE 5.8 mph - N/A   Scattered Clouds
1:55 AM 66.9 °F - 66.0 °F 97% 30.17 in 10.0 mi SE 5.8 mph - N/A   Clear
2:34 AM 64.4 °F - 64.4 °F 100% 30.16 in 2.5 mi Variable 4.6 mph - N/A   Partly Cloudy
2:50 AM 66.2 °F - 64.4 °F 94% 30.16 in 9.0 mi SE 4.6 mph - N/A   Partly Cloudy
2:55 AM 66.0 °F - 64.9 °F 96% 30.16 in 10.0 mi SE 4.6 mph - N/A   Partly Cloudy
3:39 AM 64.4 °F - 64.4 °F 100% 30.15 in 1.8 mi SE 4.6 mph - N/A   Clear
3:43 AM 62.6 °F - 62.6 °F 100% 30.15 in 1.0 mi SE 4.6 mph - N/A   Mist
3:51 AM 64.4 °F - 64.4 °F 100% 30.15 in 1.5 mi SE 4.6 mph - N/A   Partly Cloudy
3:55 AM 64.0 °F - 64.0 °F 100% 30.15 in 4.0 mi SE 5.8 mph - N/A   Clear
4:55 AM 66.0 °F - 64.9 °F 96% 30.15 in 10.0 mi SE 4.6 mph - N/A   Clear
5:55 AM 64.9 °F - 64.0 °F 97% 30.14 in 10.0 mi SE 6.9 mph - N/A   Clear
6:55 AM 64.9 °F - 64.0 °F 97% 30.15 in 10.0 mi SE 6.9 mph - 0.01 in   Clear
7:36 AM 64.4 °F - 64.4 °F 100% 30.15 in 8.0 mi SE 9.2 mph - N/A   Partly Cloudy
8:44 AM 66.2 °F - 66.2 °F 100% 30.16 in 8.0 mi SE 6.9 mph - N/A   Mostly Cloudy
8:55 AM 66.9 °F - 66.0 °F 97% 30.18 in 9.0 mi SE 8.1 mph - N/A   Mostly Cloudy
9:13 AM 68.0 °F - 66.2 °F 94% 30.18 in 10.0 mi SE 9.2 mph - N/A   Scattered Clouds
9:55 AM 71.1 °F - 66.0 °F 84% 30.19 in 10.0 mi SSE 11.5 mph - N/A   Mostly Cloudy
10:30 AM 73.4 °F - 66.2 °F 78% 30.19 in 10.0 mi SE 8.1 mph - N/A   Mostly Cloudy
10:55 AM 75.9 °F - 66.9 °F 74% 30.19 in 10.0 mi SSE 9.2 mph - N/A   Mostly Cloudy
11:55 AM 77.0 °F - 66.9 °F 71% 30.19 in 10.0 mi SSE 9.2 mph - N/A   Mostly Cloudy
12:37 PM 78.8 °F - 64.4 °F 61% 30.16 in 10.0 mi SSE 11.5 mph 17.3 mph N/A   Scattered Clouds
12:55 PM 80.1 °F 81.9 °F 64.9 °F 60% 30.16 in 10.0 mi SSE 6.9 mph 17.3 mph N/A   Scattered Clouds
1:55 PM 79.0 °F - 63.0 °F 58% 30.13 in 10.0 mi South 6.9 mph - N/A   Scattered Clouds
2:55 PM 80.1 °F 81.7 °F 64.0 °F 58% 30.12 in 10.0 mi SSE 9.2 mph - N/A   Mostly Cloudy
3:55 PM 79.0 °F - 63.0 °F 58% 30.11 in 10.0 mi SSE 8.1 mph - N/A   Mostly Cloudy
4:55 PM 79.0 °F - 64.0 °F 60% 30.11 in 10.0 mi SE 9.2 mph - N/A   Scattered Clouds
5:55 PM 75.9 °F - 64.0 °F 67% 30.11 in 10.0 mi SSE 10.4 mph - N/A   Clear
6:55 PM 72.0 °F - 64.9 °F 78% 30.12 in 10.0 mi SSE 4.6 mph - N/A   Clear
7:55 PM 70.0 °F - 64.0 °F 81% 30.14 in 10.0 mi SSE 5.8 mph - N/A   Clear
8:55 PM 69.1 °F - 64.0 °F 84% 30.16 in 10.0 mi SSE 5.8 mph - N/A   Clear
9:55 PM 68.0 °F - 64.0 °F 87% 30.15 in 10.0 mi SSE 6.9 mph - N/A   Clear
10:55 PM 68.0 °F - 64.0 °F 87% 30.16 in 10.0 mi SE 8.1 mph - N/A   Clear
11:55 PM 68.0 °F - 64.0 °F 87% 30.15 in 10.0 mi SSE 10.4 mph - N/A   Clear